Regional Weather Roundup
Issued by NWS Newport/Morehead, NC

Current Version | Previous Version | Graphics & Text | Print | Product List | Glossary On
Versions: 1 2 3 4 5 6 7 8 9 10 11 12 13 14 15 16 17 18 19 20 21 22 23 24 25 26 27 28 29 30 31 32 33 34 35 36 37 38 39 40 41 42 43 44 45 46 47 48 49 50
000 ASUS42 KMHX 221726 RWRMHX WEATHER ROUNDUP FOR EASTERN NORTH CAROLINA NATIONAL WEATHER SERVICE NEWPORT/MOREHEAD CITY NC 100 PM EDT MON MAY 22 2017 NOTE: "FAIR" INDICATES FEW OR NO CLOUDS BELOW 12,000 FEET WITH NO SIGNIFICANT WEATHER AND/OR OBSTRUCTIONS TO VISIBILITY NCZ015>017-031-032-045>047-102-103-221800- NORTH COAST CITY SKY/WX TMP DP RH WIND PRES REMARKS EDENTON CLOUDY 81 70 69 S9 29.99F ELIZABETH CITY CLOUDY 80 69 69 S8 30.00F KITTY HAWK NOT AVBL MANTEO PTSUNNY 78 71 79 S16 30.02F $$ NCZ045>047-081-094-103-104-221800- CENTRAL COAST CITY SKY/WX TMP DP RH WIND PRES REMARKS FRISCO PTSUNNY 82 71 69 S10 30.06F $$ NCZ095-097-098-100-101-221800- SOUTHERN COAST CITY SKY/WX TMP DP RH WIND PRES REMARKS BEAUFORT CLOUDY 80 72 76 SW17 30.04F CEDAR ISLAND NOT AVBL JACKSONVILLE NOT AVBL PINEY ISLAND CLOUDY N/A N/A N/A S18 30.03F WILMINGTON PTSUNNY 84 70 62 S13 30.03F $$ NCZ011>013-027>030-043-044-078>080-089-090>093-098-221800- COASTAL PLAIN CITY SKY/WX TMP DP RH WIND PRES REMARKS AHOSKIE N/A 75 71 85 S5 29.96F CLINTON MOSUNNY 85 70 61 W10 30.01F ELIZABETHTOWN CLOUDY 84 70 62 SW8 30.02F GOLDSBORO PTSUNNY 86 68 56 W20G28 29.98F GREENVILLE PTSUNNY 82 70 65 SW12 30.00F HAVELOCK MOSUNNY 83 67 58 SW15 30.03F KENANSVILLE CLOUDY 82 68 61 W12G20 30.01F KINSTON CLOUDY 82 70 65 SW13 30.01F NEW BERN CLOUDY 81 69 67 SW12G23 30.02F RICHLANDS CLOUDY 83 70 64 SW13G21 30.02F ROCKY MOUNT PTSUNNY 77 67 71 W15G25 30.00R WASHINGTON CLOUDY 81 69 66 SW12G17 29.99F WHITEVILLE PTSUNNY 83 69 63 SW5 30.02F $$ AMZ130-135-150-152-154-156-158-170-250-252-270-ANZ085-086-088-633-658-670-221800- MARINE OBSERVATIONS STATION/POSITION TIME TEMP WIND PRES WAVE SWELL AIR SEA DIR/SP/G HT/PER HT/PER (UTC) (F) (DEG/KT/KT) (MB) (FT/S) (FT/S) CHESAPEAKE LIGHT NOT AVBL 64 E VA BEACH 1650 71 69 160/ 10/ 12 1017.8 4/ 9 3/ 9 DUCK 1700 70 66 160/ 8/ 15 1015.9 2 E DUCK 1700 67 N/A 4/ 7 OREGON INLET 1700 76 70 160/ 13/ 17 1016.8 13E OREGON INLT 1648 66 N/A 4/ 7 3/ 7 HATTERAS CG 1700 77 74 160/ 10/ 13 1017.4 DIAMOND BUOY 1650 76 78 170/ 8/ 10 1018.1 4/ 8 3/ 8 CAPE LOOKOUT 1700 78 200/ 13/ 14 1017.2 BEAUFORT LAB 1700 78 75 200/ 13/ 15 1016.5 30 SE NEW RVR IN 1708 76 76 230/ 14/ 17 1017.6 30 SE NEW RVR IN 1643 76 N/A 4/ 4 27 SE WRIGHTSVLE 1708 76 76 200/ 12/ 17 1016.9 5 SE WRIGHTSVLE 1708 76 75 200/ 10/ 19 1017.1 225 S CAPE HAT 1650 75 77 250/ 6/ 6 1019.8 4/ 8 3/ 8 41 SE CHARLESTON 1710 78 78 200/ 10/ 12 1017.5 $$

USA.gov is the U.S. government's official web portal to all federal, state and local government web resources and services.